Reflectivity
33 1 -5 -20 -20 -20 -20 -20 -20 -20 -20 -20 -20 -20 -20 -20 -20 -20 -20 -20 -20 -20 -17 9 -19 -10 -20 -20 -20 -11 9 -20 -20
5 -19 9 -20 -20 -20 -20 -20 -20 -20 -20 -20 -20 -20 -20 -20 -20 -20 -20 -20 -20 -20 -20 -20 14 -17 12 -20 -19 -11 -20 -20 13
12 6 -0 14 -2 -20 -20 -20 -20 -20 -20 -20 -20 -20 -20 -20 -20 -20 -20 -20 -20 -20 -20 -20 -4 -9 -6 -20 -20 -13 -20 -20 -20
-6 -6 11 5 7 -11 11 -20 -20 -20 -20 -20 -20 -20 -20 -20 -20 -20 -20 -20 -20 -20 -20 -20 -20 6 -3 -20 -20 -20 -4 1 -15
-20 -20 10 13 -10 -5 3 -20 -20 -20 -20 -20 -20 -20 -20 -20 -20 -20 -20 -18 -20 -20 -20 -20 -20 12 19 -20 -20 -20 -20 13 15
7 11 14 -18 -20 -20 -18 -2 -11 8 -20 -20 -20 -20 -20 -20 -20 -20 -20 -20 -6 -20 -20 -20 -20 10 -20 -20 -20 3 -15 15 14
-9 6 11 12 8 -20 -19 -20 -16 -11 4 -20 -20 -20 -20 -20 -20 -20 -20 -20 -20 8 -20 -18 -20 -7 16 10 -12 9 6 -6 17
-20 -20 -18 -20 8 -1 -15 -18 -20 -20 -19 -20 -20 -20 -20 -20 -20 -20 -20 -20 -7 6 -20 -20 -20 -18 21 9 23 -19 -12 -16 -13
-20 -20 -20 -20 -20 -20 -20 -20 10 -16 -20 -20 -20 -20 -20 -20 -20 -20 -20 -20 -20 -12 -17 -20 12 -20 -20 -14 -19 -20 -20 -20 -20
-20 -20 -20 -20 -20 -20 -9 5 -15 -12 -11 -20 -20 -20 -20 -20 -17 -20 -20 -20 -10 14 -20 -20 -20 2 5 -2 -20 -20 -20 -20 -20
-20 -20 -20 -20 -20 -20 -20 -20 -18 -20 -20 -20 -20 -7 -18 -20 -20 -20 -12 -13 -20 7 -2 -20 -20 -15 -20 -20 4 -14 -20 -0 -20
-20 -20 -20 -20 -20 -20 -20 -20 -20 -20 -20 -20 -20 -20 -18 -10 -20 -20 -20 -20 15 -20 23 -20 -18 -20 -20 -12 3 -20 -4 12 -20
-20 -20 -20 -20 -20 -20 -20 -20 -20 -20 -20 -20 -20 -20 -20 -20 -18 12 -3 -20 -20 18 -16 19 -3 -20 -20 -11 -14 0 -3 -20 -3
-20 -20 -20 -20 -20 -20 -20 -20 -20 -20 -20 -20 -20 -20 -20 -20 -20 6 -19 -19 -20 -20 11 -14 -20 -14 -20 -20 -11 12 -2 -20 -14
-20 -20 -20 -20 -20 -20 -20 -20 -20 -20 -20 -20 -20 -20 -20 -20 -20 -20 -20 -19 2 -8 -11 11 3 1 -20 -20 -20 9 20 -20 -20
-20 -20 -20 -20 -20 -20 -20 -20 -20 -20 -20 -20 -20 -20 -20 -20 -5 -20 3 -17 19 -4 13 24 -7 16 -20 -11 1 -20 26 -20 -20
-20 -20 -20 -20 -20 -20 -20 -20 -20 -20 -20 -20 -20 -20 -20 -20 5 -20 -19 -20 -20 -17 7 -4 17 25 21 -20 -20 -10 14 -13 -18
-20 -20 -20 -20 -20 -20 -20 -20 -20 -20 -20 -20 -20 -13 -2 -20 -17 -20 -20 3 -4 -9 -11 15 2 23 15 22 -9 -2 -20 -3 15
-20 -20 -20 -20 -20 -20 -20 -20 -20 -20 -20 -20 -20 -20 -16 -20 -20 -19 -17 -11 10 3 5 18 27 19 12 9 18 16 16 16 -20
-20 -20 -20 -20 -20 -20 -20 -20 -20 -20 -20 -20 -20 -20 -20 -20 -18 -19 -20 -14 -20 -20 5 -1 9 19 15 4 14 19 -2 23 27
Wind_Speed
8 7 6 5 5 5 6 6 5 4 2 2 4 6 7 7 4 5 6 5 7 8 7 9 13 13 12 11 12 11 13 15 12
12 8 5 5 4 4 4 4 4 2 1 2 2 4 6 5 4 5 5 4 7 6 6 6 10 14 14 12 11 11 12 15 12
25 24 20 8 5 4 3 3 3 2 3 4 1 3 5 6 2 2 4 7 8 6 6 5 8 13 14 13 11 10 11 13 12
24 24 24 21 18 8 4 4 3 4 5 4 3 3 2 3 1 2 2 7 9 7 7 6 8 11 14 14 12 10 11 14 16
24 25 24 23 23 22 14 6 3 4 4 5 4 4 4 3 2 3 3 9 10 9 8 8 9 12 13 14 14 10 15 13 14
17 21 25 24 24 23 23 22 11 6 7 6 6 6 2 2 3 3 8 11 10 11 10 9 11 13 14 14 15 13 14 12 13
14 17 24 24 26 24 24 23 21 13 4 4 5 3 4 3 3 3 9 14 10 13 11 11 12 15 17 17 16 16 15 14 11
9 8 9 10 19 10 13 12 9 11 9 6 4 4 4 3 3 5 11 16 15 14 13 13 14 14 15 16 18 16 14 16 16
9 8 10 10 9 11 10 8 11 12 11 11 8 6 4 3 3 5 11 16 18 16 16 15 12 13 16 16 16 15 14 13 14
8 9 9 9 9 9 9 9 10 11 12 10 11 8 7 8 3 3 10 15 17 17 17 17 18 17 17 18 17 16 16 16 16
8 9 9 10 10 10 9 10 10 9 11 11 11 12 8 7 6 4 5 16 18 19 17 19 20 20 19 19 17 17 17 18 17
9 8 9 9 9 11 9 11 10 9 10 11 10 9 10 8 8 7 5 6 14 15 18 19 21 22 22 21 19 18 18 18 17
8 8 9 9 8 9 9 10 10 9 9 10 10 11 10 11 10 7 7 5 6 11 18 17 21 21 23 23 22 21 18 18 17
9 8 8 9 8 8 9 9 9 10 10 12 10 9 10 10 9 10 9 9 7 6 12 16 16 20 21 24 24 23 21 19 20
9 8 9 9 8 8 10 11 9 8 11 12 10 11 10 10 9 9 8 7 8 9 10 9 11 16 21 24 24 24 23 22 21
10 8 8 9 8 9 11 8 12 8 13 7 9 7 9 6 6 6 7 9 10 10 10 7 6 9 19 23 25 25 24 24 23
10 8 8 9 8 10 10 10 9 5 10 7 7 7 6 9 11 9 6 10 8 10 10 10 11 11 10 15 23 25 26 28 28
9 9 8 7 7 6 8 8 11 8 6 10 4 6 5 13 5 11 8 11 9 8 9 9 11 13 11 13 17 22 24 27 31
7 8 8 8 6 7 8 8 6 6 8 6 6 5 7 5 9 5 12 8 11 11 11 11 14 14 11 14 16 20 23 27 30
6 7 6 6 5 6 7 7 7 5 6 6 7 7 5 10 6 13 12 13 10 12 8 12 12 13 10 11 13 19 25 30 31
Wind_Direction
45 56 75 68 56 58 74 80 101 107 36 92 83 52 35 53 91 118 110 91 92 89 84 133 126 118 110 107 103 115 116 106 107
30 39 38 46 56 57 61 87 90 96 335 301 143 83 36 36 145 131 124 126 122 117 91 115 136 127 122 118 113 113 112 108 110
29 29 14 7 15 16 31 59 64 26 295 291 164 76 56 30 137 137 144 148 146 146 135 108 142 140 134 131 130 130 124 121 115
30 25 21 21 8 344 356 24 23 347 334 311 174 138 76 67 71 191 182 168 149 161 172 155 152 154 148 144 137 141 152 136 127
23 24 16 22 20 13 348 330 332 321 331 323 285 221 179 168 206 213 209 196 164 172 188 187 167 172 161 154 146 145 144 144 138
19 17 19 18 17 16 6 3 331 300 309 310 296 287 278 217 216 188 217 209 190 181 190 203 192 179 174 166 157 154 152 155 149
21 17 18 16 13 11 5 1 359 344 309 300 312 278 270 255 247 246 217 223 212 192 192 200 199 190 187 174 170 165 159 155 161
20 12 11 8 9 10 1 356 356 342 337 305 288 278 259 249 238 250 230 222 227 194 187 190 218 203 190 181 178 175 171 166 162
21 19 13 9 4 1 0 353 343 340 335 329 293 275 270 261 225 242 238 223 234 207 195 188 196 188 187 183 187 182 181 179 161
14 18 15 11 4 1 356 352 350 341 338 334 324 292 273 269 242 239 231 237 234 221 201 203 196 202 194 196 190 192 190 182 168
19 19 14 8 6 0 356 353 348 342 339 331 336 326 294 272 267 246 257 232 230 239 207 208 206 205 204 204 197 195 197 189 182
17 17 14 6 0 2 357 358 350 344 338 331 327 311 313 278 268 265 242 241 227 246 238 202 210 208 212 210 203 202 204 201 194
21 19 13 359 2 5 1 358 352 345 341 331 322 310 297 287 262 262 248 226 234 227 244 218 210 216 212 212 207 205 206 208 201
21 17 8 3 5 6 1 357 353 340 344 325 315 300 285 281 268 251 235 217 219 224 230 226 217 213 210 213 217 209 205 207 202
21 13 10 7 8 7 2 356 355 341 344 320 313 301 281 275 246 248 252 256 227 223 219 228 228 218 211 210 217 216 206 204 204
15 10 10 7 11 4 1 353 353 353 351 338 328 295 286 300 308 274 258 255 254 236 221 213 220 229 218 214 214 215 214 203 204
15 7 9 1 3 3 2 9 352 341 0 343 300 337 327 8 326 304 284 270 261 251 239 226 216 231 220 215 219 218 212 210 208
5 7 5 5 1 356 357 5 360 345 345 346 307 340 326 337 330 323 350 336 322 283 280 264 228 226 221 218 214 217 217 210 213
359 1 354 355 346 356 351 354 344 342 336 342 7 318 303 312 313 308 322 339 327 342 334 284 255 234 226 220 218 210 216 216 214
351 352 349 343 342 343 336 338 340 331 325 318 316 305 302 268 276 292 311 315 320 312 326 318 301 274 235 225 222 218 213 218 214